1318636829664,2.65375
1318636889664,2.66492
1318636949664,2.63730
1318637009664,2.64701
1318637069664,2.66125
1318637129664,2.64772
1318637189664,2.65037
1318637249664,2.63563
1318637309664,2.63498
1318637369664,2.63227
1318637429664,2.65811
1318637489664,2.64875
1318637549664,2.64946
1318637609664,2.66250
1318637669664,2.65194
1318637729664,2.64408
1318637789664,2.66072
1318637849664,2.65015
1318637909664,2.63366
1318637969664,2.63318
1318638029664,2.65255
1318638089664,2.64146
1318638149664,2.64790
1318638209664,2.64780
1318638269664,2.65374
1318638329664,2.66039
1318638389664,2.66168
1318638449664,2.65060
1318638509664,2.65449
1318638569664,2.63605
1318638629664,2.66080
1318638689664,2.64665
1318638749664,2.65293
1318638809664,2.65967
1318638869664,2.65122
1318638929664,2.65187
1318638989664,2.64158
1318639049664,2.63840
1318639109664,2.64548
1318639169664,2.64958
1318639229664,2.64505
1318639289664,2.66445
1318639349664,2.64074
1318639409664,2.66017
1318639469664,2.64600
1318639529664,2.64804
1318639589664,2.63237
1318639649664,2.64780
1318639709664,2.66668
1318639769664,2.65913
1318639829664,2.65493
1318639889664,2.66476
1318639949664,2.65236
1318640009664,2.63762
1318640069664,2.64604
1318640129664,2.63681
1318640189664,2.64908
1318640249664,2.63835
1318640309664,2.64160
1318640369664,2.64133
1318640429675,2.65289
1318640489675,2.65122
1318640549675,2.64326
1318640609675,2.67449
1318640669675,2.67909
1318640729675,2.64721
1318640789675,2.64330
1318640849675,2.65390
1318640909675,2.65640
1318640969675,2.66910
1318641029675,2.64892
1318641089675,2.66806
1318641149675,2.66656
1318641209675,2.66018
1318641269675,2.66492
1318641329675,2.67038
1318641389675,2.67257
1318641449675,2.66123
1318641509675,2.67980
1318641569675,2.69369
1318641629675,2.66834
1318641689675,2.67611
1318641749675,2.66405
1318641809675,2.67853
1318641869675,2.66148
1318641929675,2.66986
1318641989675,2.67946
1318642049675,2.67556
1318642109675,2.69568
1318642169675,2.68095
1318642229675,2.68477
1318642289675,2.67525
1318642349675,2.67668
1318642409675,2.68984
1318642469675,2.67018
1318642529675,2.67559
1318642589675,2.68738
1318642649675,2.67439
1318642709675,2.67356
1318642769675,2.66210
1318642829675,2.67789
1318642889675,2.67444
1318642949675,2.68782
1318643009675,2.69106
1318643069675,2.67735
1318643129675,2.69162
1318643189675,2.67049
1318643249675,2.67447
1318643309675,2.66995
1318643369675,2.67174
1318643429675,2.67256
1318643489675,2.68474
1318643549675,2.67686
1318643609675,2.65905
1318643669675,2.66410
1318643729675,2.68422
1318643789675,2.66925
1318643849675,2.67554
1318643909675,2.67048
1318643969675,2.68337
1318644029685,2.67335
1318644089685,2.67575
1318644149685,2.66669
1318644209685,2.68109
1318644269685,2.67549
1318644329685,2.68734
1318644389685,2.67222
1318644449685,2.67488
1318644509685,2.67649
1318644569685,2.67927
1318644629685,2.67389
1318644689685,2.68671
1318644749685,2.69130
1318644809685,2.67642
1318644869685,2.67755
1318644929685,2.68532
1318644989685,2.67454
1318645049685,2.68812
1318645109685,2.65921
1318645169685,2.67834
1318645229685,2.70055
1318645289685,2.69665
1318645349685,2.70785
1318645409685,2.70053
1318645469685,2.70739
1318645529685,2.71190
1318645589685,2.70505
1318645649685,2.71259
1318645709685,2.68592
1318645769685,2.70110
1318645829685,2.71720
1318645889685,2.71458
1318645949685,2.70427
1318646009685,2.71399
1318646069685,2.68704
1318646129685,2.72738
1318646189685,2.70207
1318646249685,2.70026
1318646309685,2.71811
1318646369685,2.70399
1318646429685,2.68758
1318646489685,2.70405
1318646549685,2.71622
1318646609685,2.70614
1318646669685,2.72183
1318646729685,2.69087
1318646789685,2.71556
1318646849685,2.71083
1318646909685,2.70783
1318646969685,2.68905
1318647029685,2.67435
1318647089685,2.70016
1318647149685,2.69965
1318647209685,2.71034
1318647269685,2.67741
1318647329685,2.70044
1318647389685,2.67881
1318647449685,2.69985
1318647509685,2.69259
1318647569685,2.67690
1318647629695,2.67454
1318647689695,2.68091
1318647749695,2.68652
1318647809695,2.67617
1318647869695,2.67367
1318647929695,2.69038
1318647989695,2.67061
1318648049695,2.67512
1318648109695,2.68454
1318648169695,2.67593
1318648229695,2.67383
1318648289695,2.65828
1318648349695,2.66776
1318648409695,2.67465
1318648469695,2.66649
1318648529695,2.67776
1318648589695,2.66272
1318648649695,2.65942
1318648709695,2.66512
1318648769695,2.66569
1318648829695,2.65669
1318648889695,2.67397
1318648949695,2.67076
1318649009695,2.67354
1318649069695,2.66793
1318649129695,2.65285
1318649189695,2.67219
1318649249695,2.65397
1318649309695,2.65815
1318649369695,2.66705
1318649429695,2.66017
1318649489695,2.64849
1318649549695,2.65856
1318649609695,2.64229
1318649669695,2.65397
1318649729695,2.66168
1318649789695,2.66320
1318649849695,2.63901
1318649909695,2.64777
1318649969695,2.66230
1318650029695,2.65402
1318650089695,2.66222
1318650149695,2.65469
1318650209695,2.67179
1318650269695,2.63220
1318650329695,2.67043
1318650389695,2.64691
1318650449695,2.67184
1318650509695,2.64482
1318650569695,2.65207
1318650629695,2.65445
1318650689695,2.55381
1318650749695,2.63359
1318650809695,2.65279
1318650869695,2.66041
1318650929695,2.66151
1318650989695,2.65983
1318651049695,2.64684
1318651109695,2.65668
1318651169695,2.64118
1318651229705,2.66634
1318651289705,2.65191
1318651349705,2.65875
1318651409705,2.66820
1318651469705,2.65186
1318651529705,2.66076
1318651589705,2.63238
1318651649705,2.63542
1318651709705,2.64675
1318651769705,2.63795
1318651829705,2.63505
1318651889705,2.64672
1318651949705,2.63696
1318652009705,2.64754
1318652069705,2.65492
1318652129705,2.64470
1318652189705,2.63682
1318652249705,2.64558
1318652309705,2.64965
1318652369705,2.63103
1318652429705,2.64975
1318652489705,2.64432
1318652549705,2.65847
1318652609705,2.64279
1318652669705,2.65623
1318652729705,2.66544
1318652789705,2.65770
1318652849705,2.67097
1318652909705,2.66846
1318652969705,2.66655
1318653029705,2.65919
1318653089705,2.66722
1318653149705,2.65214
1318653209705,2.66547
1318653269705,2.68965
1318653329705,2.63947
1318653389705,2.68643
1318653449705,2.68634
1318653509705,2.68796
1318653569705,2.68894
1318653629705,2.67423
1318653689705,2.70329
1318653749705,2.67438
1318653809705,2.68225
1318653869705,2.70334
1318653929705,2.70584
1318653989705,2.70760
1318654049705,2.70576
1318654109705,2.73061
1318654169705,2.73349
1318654229705,2.73963
1318654289705,2.72493
1318654349705,2.71752
1318654409705,2.73191
1318654469705,2.73040
1318654529705,2.72266
1318654589705,2.73249
1318654649705,2.73592
1318654709705,2.73949
1318654769705,2.76978
1318654829716,2.75595
1318654889716,2.73054
1318654949716,2.75946
1318655009716,2.74784
1318655069716,2.73468
1318655129716,2.77042
1318655189716,2.75468
1318655249716,2.73361
1318655309716,2.73810
1318655369716,2.74584
1318655429716,2.72485
1318655489716,2.71084
1318655549716,2.72297
1318655609716,2.71339
1318655669716,2.74033
1318655729716,2.71627
1318655789716,2.71456
1318655849716,2.69747
1318655909716,2.71899
1318655969716,2.70794
1318656029716,2.69690
1318656089716,2.68877
1318656149716,2.71621
1318656209716,2.69461
1318656269716,2.68907
1318656329716,2.70359
1318656389716,2.68768
1318656449716,2.70085
1318656509716,2.68245
1318656569716,2.70064
1318656629716,2.69144
1318656689716,2.70151
1318656749716,2.68967
1318656809716,2.69438
1318656869716,2.68946
1318656929716,2.69988
1318656989716,2.69383
1318657049716,2.68714
1318657109716,2.77539
1318657169716,2.68705
1318657229716,2.68265
1318657289716,2.68599
1318657349716,2.67272
1318657409716,2.67487
1318657469716,2.66766
1318657529716,2.68804
1318657589716,2.67201
1318657649716,2.68046
1318657709716,2.68289
1318657769716,2.69289
1318657829716,2.68676
1318657889716,2.69154
1318657949716,2.67840
1318658009716,2.67736
1318658069716,2.67146
1318658129716,2.67917
1318658189716,2.68029
1318658249716,2.67122
1318658309716,2.68783
1318658369716,2.69075
1318658429726,2.68565
1318658489726,2.69897
1318658549726,2.68099
1318658609726,2.67613
1318658669726,2.66683
1318658729726,2.67259
1318658789726,2.68613
1318658849726,2.67280
1318658909726,2.66743
1318658969726,2.67748
1318659029726,2.67606
1318659089726,2.68977
1318659149726,2.66246
1318659209726,2.65592
1318659269726,2.67129
1318659329726,2.67445
1318659389726,2.68156
1318659449726,2.67186
1318659509726,2.67564
1318659569726,2.67150
1318659629726,2.66351
1318659689726,2.67746
1318659749726,2.68024
1318659809726,2.67016
1318659869726,2.67128
1318659929726,2.67584
1318659989726,2.66623
1318660049726,2.66583
1318660109726,2.66417
1318660169726,2.66746
1318660229726,2.68002
1318660289726,2.68246
1318660349726,2.69383
1318660409726,2.67578
1318660469726,2.68378
1318660529726,2.68445
1318660589726,2.67375
1318660649726,2.66641
1318660709726,2.69332
1318660769726,2.67335
1318660829726,2.66493
1318660889726,2.68670
1318660949726,2.66051
1318661009726,2.68076
1318661069726,2.67632
1318661129726,2.66663
1318661189726,2.67506
1318661249726,2.65877
1318661309726,2.68856
1318661369726,2.68659
1318661429726,2.68739
1318661489726,2.68392
1318661549726,2.67807
1318661609726,2.68378
1318661669726,2.69863
1318661729726,2.66765
1318661789726,2.69672
1318661849726,2.71119
1318661909726,2.66835
1318661969726,2.68562
1318662029736,2.67233
1318662089736,2.67794
1318662149736,2.67932
1318662209736,2.65522
1318662269736,2.67806
1318662329736,2.68704
1318662389736,2.65960
1318662449736,2.65655
1318662509736,2.68023
1318662569736,2.69612
1318662629736,2.66009
1318662689736,2.66835
1318662749736,2.66539
1318662809736,2.68656
1318662869736,2.68774
1318662929736,2.66609
1318662989736,2.66433
1318663049736,2.67428
1318663109736,2.67842
1318663169736,2.69906
1318663229736,2.69199
1318663289736,2.67285
1318663349736,2.69843
1318663409736,2.67874
1318663469736,2.68378
1318663529736,2.68115
1318663589736,2.69892
1318663649736,2.67483
1318663709736,2.70306
1318663769736,2.69382
1318663829736,2.69051
1318663889736,2.68320
1318663949736,2.68672
1318664009736,2.68903
1318664069736,2.68654
1318664129736,2.69659
1318664189736,2.68542
1318664249736,2.66819
1318664309736,2.70654
1318664369736,2.68893
1318664429736,2.68723
1318664489736,2.67434
1318664549736,2.69896
1318664609736,2.68120
1318664669736,2.69996
1318664729736,2.67861
1318664789736,2.71237
1318664849736,2.68070
1318664909736,2.69209
1318664969736,2.69426
1318665029736,2.68750
1318665089736,2.67777
1318665149736,2.69541
1318665209736,2.68470
1318665269736,2.68695
1318665329736,2.68744
1318665389736,2.68041
1318665449736,2.68891
1318665509736,2.68594
1318665569736,2.69134
1318665629747,2.69368
1318665689747,2.71085
1318665749747,2.68699
1318665809747,2.67545
1318665869747,2.69559
1318665929747,2.68522
1318665989747,2.69235
1318666049747,2.70683
1318666109747,2.69264
1318666169747,2.68490
1318666229747,2.68350
1318666289747,2.70363
1318666349747,2.65689
1318666409747,2.66858
1318666469747,2.67940
1318666529747,2.68113
1318666589747,2.68962
1318666649747,2.68178
1318666709747,2.68569
1318666769747,2.68104
1318666829747,2.70352
1318666889747,2.67739
1318666949747,2.69357
1318667009747,2.68858
1318667069747,2.68441
1318667129747,2.69076
1318667189747,2.68949
1318667249747,2.65937
1318667309747,2.67493
1318667369747,2.69091
1318667429747,2.69608
1318667489747,2.69272
1318667549747,2.69805
1318667609747,2.71117
1318667669747,2.70143
1318667729747,2.70292
1318667789747,2.70366
1318667849747,2.72207
1318667909747,2.67944
1318667969747,2.67574
1318668029747,2.70263
1318668089747,2.69258
1318668149747,2.68083
1318668209747,2.70385
1318668269747,2.67570
1318668329747,2.68259
1318668389747,2.66991
1318668449747,2.67550
1318668509747,2.68454
1318668569747,2.66973
1318668629747,2.69187
1318668689747,2.66290
1318668749747,2.66887
1318668809747,2.67834
1318668869747,2.68929
1318668929747,2.67281
1318668989747,2.69507
1318669049747,2.68707
1318669109747,2.69742
1318669169747,2.68124
1318669229757,2.67869
1318669289757,2.67249
1318669349757,2.68452
1318669409757,2.68036
1318669469757,2.68569
1318669529757,2.67509
1318669589757,2.68114
1318669649757,2.69944
1318669709757,2.66637
1318669769757,2.69528
1318669829757,2.68858
1318669889757,2.68079
1318669949757,2.69039
1318670009757,2.68274
1318670069757,2.67072
1318670129757,2.68544
1318670189757,2.68579
1318670249757,2.67625
1318670309757,2.68204
1318670369757,2.68685
1318670429757,2.68065
1318670489757,2.69280
1318670549757,2.66422
1318670609757,2.68777
1318670669757,2.69101
1318670729757,2.68596
1318670789757,2.69000
1318670849757,2.68077
1318670909757,2.69671
1318670969757,2.79052
1318671029757,2.67130
1318671089757,2.63887
1318671149757,2.68371
1318671209757,2.67047
1318671269757,2.68293
1318671329757,2.68998
1318671389757,2.68407
1318671449757,2.69451
1318671509757,2.68838
1318671569757,2.67628
1318671629757,2.69467
1318671689757,2.70883
1318671749757,2.68484
1318671809757,2.69588
1318671869757,2.69923
1318671929757,2.69929
1318671989757,2.69289
1318672049757,2.70570
1318672109757,2.69639
1318672169757,2.70613
1318672229757,2.69354
1318672289757,2.70789
1318672349757,2.68139
1318672409757,2.69999
1318672469757,2.70437
1318672529757,2.68043
1318672589757,2.68936
1318672649757,2.69827
1318672709757,2.68289
1318672769757,2.70055
1318672829768,2.69401
1318672889768,2.71704
1318672949768,2.69851
1318673009768,2.69234
1318673069768,2.70093
1318673129768,2.68986
1318673189768,2.71114
1318673249768,2.69694
1318673309768,2.69387
1318673369768,2.69921
1318673429768,2.71834
1318673489768,2.70348
1318673549768,2.69775
1318673609768,2.72178
1318673669768,2.78793
1318673729768,2.69205
1318673789768,2.71240
1318673849768,2.69423
1318673909768,2.70366
1318673969768,2.69482
1318674029768,2.69716
1318674089768,2.70038
1318674149768,2.68616
1318674209768,2.71119
1318674269768,2.71373
1318674329768,2.69146
1318674389768,2.68576
1318674449768,2.64763
1318674509768,2.71633
1318674569768,2.69112
1318674629768,2.70561
1318674689768,2.72282
1318674749768,2.67402
1318674809768,2.69903
1318674869768,2.70006
1318674929768,2.70936
1318674989768,2.70128
1318675049768,2.70101
1318675109768,2.71156
1318675169768,2.69383
1318675229768,2.72695
1318675289768,2.69447
1318675349768,2.71559
1318675409768,2.74419
1318675469768,2.71141
1318675529768,2.69851
1318675589768,2.69637
1318675649768,2.69958
1318675709768,2.71378
1318675769768,2.70366
1318675829768,2.72119
1318675889768,2.70498
1318675949768,2.69034
1318676009768,2.69785
1318676069768,2.69696
1318676129768,2.69897
1318676189768,2.68615
1318676249768,2.70458
1318676309768,2.69380
1318676369768,2.68329
1318676429779,2.69860
1318676489779,2.69666
1318676549779,2.68520
1318676609779,2.68642
1318676669779,2.70523
1318676729779,2.67805
1318676789779,2.70287
1318676849779,2.69185
1318676909779,2.69808
1318676969779,2.69788
1318677029779,2.69929
1318677089779,2.70418
1318677149779,2.68962
1318677209779,2.69041
1318677269779,2.68020
1318677329779,2.67522
1318677389779,2.70347
1318677449779,2.70098
1318677509779,2.68732
1318677569779,2.71990
1318677629779,2.70518
1318677689779,2.71894
1318677749779,2.71501
1318677809779,2.68576
1318677869779,2.72028
1318677929779,2.69978
1318677989779,2.70843
1318678049779,2.69559
1318678109779,2.70917
1318678169779,2.71771
1318678229779,2.71810
1318678289779,2.70622
1318678349779,2.73434
1318678409779,2.71805
1318678469779,2.71082
1318678529779,2.72527
1318678589779,2.73047
1318678649779,2.74066
1318678709779,2.71899
1318678769779,2.72527
1318678829779,2.74401
1318678889779,2.74453
1318678949779,2.74408
1318679009779,2.75733
1318679069779,2.75530
1318679129779,2.74880
1318679189779,2.74649
1318679249779,2.76275
1318679309779,2.75680
1318679369779,2.75643
1318679429779,2.74566
1318679489779,2.73181
1318679549779,2.73964
1318679609779,2.74086
1318679669779,2.73289
1318679729779,2.75909
1318679789779,2.75099
1318679849779,2.74734
1318679909779,2.76032
1318679969779,2.74294
1318680029790,2.73099
1318680089790,2.76097
1318680149790,2.73746
1318680209790,2.73393
1318680269790,2.75757
1318680329790,2.74521
1318680389790,2.75553
1318680449790,2.75312
1318680509790,2.74571
1318680569790,2.74497
1318680629790,2.71543
1318680689790,2.73065
1318680749790,2.73844
1318680809790,2.73156
1318680869790,2.72564
1318680929790,2.73552
1318680989790,2.73329
1318681049790,2.72926
1318681109790,2.72470
1318681169790,2.73936
1318681229790,2.72288
1318681289790,2.71497
1318681349790,2.72412
1318681409790,2.72495
1318681469790,2.74197
1318681529790,2.70809
1318681589790,2.72085
1318681649790,2.72822
1318681709790,2.72725
1318681769790,2.72413
1318681829790,2.74828
1318681889790,2.72753
1318681949790,2.73580
1318682009790,2.74371
1318682069790,2.71673
1318682129790,2.70928
1318682189790,2.72960
1318682249790,2.73121
1318682309790,2.72799
1318682369790,2.74201
1318682429790,2.73950
1318682489790,2.74573
1318682549790,2.73275
1318682609790,2.74566
1318682669790,2.72652
1318682729790,2.74726
1318682789790,2.72897
1318682849790,2.71804
1318682909790,2.72597
1318682969790,2.74297
1318683029790,2.73530
1318683089790,2.73267
1318683149790,2.72879
1318683209790,2.74422
1318683269790,2.73053
1318683329790,2.74235
1318683389790,2.72601
1318683449790,2.75289
1318683509790,2.76620
1318683569790,2.75675
1318683629801,2.73456
1318683689801,2.74636
1318683749801,2.75748
1318683809802,2.94535
1318683869802,2.74947
1318683929802,2.76347
1318683989802,2.75942
1318684049802,2.74802
1318684109802,2.75567
1318684169802,2.77021
1318684229802,2.77158
1318684289802,2.75836
1318684349802,2.76551
1318684409802,2.76464
1318684469802,2.76528
1318684529802,2.76091
1318684589802,2.76234
1318684649802,2.75952
1318684709802,2.77395
1318684769802,2.78985
1318684829802,2.77811
1318684889802,2.76717
1318684949801,2.78176
1318685009801,2.81008
1318685069801,2.79435
1318685129801,2.78598
1318685189802,2.78046
1318685249802,2.79556
1318685309802,2.80382
1318685369802,2.79557
1318685429802,2.79620
1318685489802,2.79489
1318685549802,2.78494
1318685609802,2.81073
1318685669802,2.80199
1318685729802,2.78084
1318685789802,2.79888
1318685849802,2.78974
1318685909802,2.79260
1318685969802,2.78348
1318686029802,2.78726
1318686089802,2.79538
1318686149802,2.79971
1318686209802,2.78631
1318686269802,2.79056
1318686329801,2.79089
1318686389801,2.76588
1318686449801,2.77135
1318686509802,2.78603
1318686569802,2.76543
1318686629802,2.77871
1318686689802,2.77706
1318686749802,2.77407
1318686809802,2.78382
1318686869802,2.78503
1318686929802,2.79027
1318686989802,2.77639
1318687049802,2.78624
1318687109802,2.78763
1318687169802,2.77424
1318687229813,2.79068
1318687289813,2.78494
1318687349813,2.80211
1318687409813,2.82292
1318687469813,2.82999
1318687529813,2.81260
1318687589813,2.82338
1318687649813,2.82708
1318687709813,2.81706
1318687769813,2.81121
1318687829813,2.81031
1318687889813,2.83952
1318687949813,2.80963
1318688009813,2.82249
1318688069813,2.84724
1318688129813,2.84103
1318688189813,2.84862
1318688249813,2.87306
1318688309813,2.85624
1318688369813,2.85211
1318688429813,2.85388
1318688489813,2.83910
1318688549813,2.86419
1318688609813,2.86141
1318688669813,2.88015
1318688729813,2.87216
1318688789813,2.86600
1318688849813,2.87873
1318688909813,2.85915
1318688969813,2.86528
1318689029813,2.85127
1318689089813,2.85001
1318689149813,2.85860
1318689209813,2.85457
1318689269813,2.85919
1318689329813,2.84738
1318689389813,2.82924
1318689449813,2.81769
1318689509813,2.81346
1318689569813,2.81228
1318689629813,2.81753
1318689689813,2.81664
1318689749813,2.80649
1318689809813,2.81278
1318689869813,2.80177
1318689929813,2.82200
1318689989813,2.78786
1318690049813,2.83022
1318690109813,2.81478
1318690169813,2.78587
1318690229813,2.81650
1318690289813,2.81475
1318690349813,2.84412
1318690409813,2.78865
1318690469813,2.79370
1318690529813,2.80108
1318690589813,2.80048
1318690649813,2.81380
1318690709813,2.77754
1318690769813,2.79585
1318690829825,2.79471
1318690889825,2.79889
1318690949825,2.77431
1318691009825,2.78698
1318691069825,2.78858
1318691129825,2.78533
1318691189825,2.78676
1318691249825,2.78167
1318691309825,2.78766
1318691369825,2.78054
1318691429825,2.76627
1318691489825,2.75889
1318691549825,2.74520
1318691609825,2.78299
1318691669825,2.78881
1318691729825,2.78501
1318691789825,2.77013
1318691849825,2.78320
1318691909825,2.77052
1318691969825,2.78873
1318692029825,2.78857
1318692089825,2.79541
1318692149825,2.78849
1318692209825,2.78057
1318692269825,2.77794
1318692329825,2.76914
1318692389825,2.78330
1318692449825,2.77022
1318692509825,2.78714
1318692569825,2.76905
1318692629825,2.76608
1318692689825,2.76233
1318692749825,2.77498
1318692809825,2.77412
1318692869825,2.77890
1318692929825,2.76172
1318692989825,2.77153
1318693049825,2.78042
1318693109825,2.78539
1318693169825,2.76606
1318693229825,2.76521
1318693289825,2.78270
1318693349825,2.78768
1318693409825,2.77146
1318693469825,2.77869
1318693529825,2.79251
1318693589825,2.77154
1318693649825,2.78988
1318693709825,2.78311
1318693769825,2.78357
1318693829825,2.75671
1318693889825,2.78187
1318693949825,2.78695
1318694009825,2.77054
1318694069825,2.79264
1318694129825,2.76143
1318694189825,2.77689
1318694249825,2.78791
1318694309825,2.76516
1318694369825,2.77090
1318694429837,2.75970
1318694489837,2.76661
1318694549837,2.76724
1318694609837,2.77855
1318694669837,2.76863
1318694729837,2.77950
1318694789837,2.77875
1318694849837,2.76888
1318694909837,2.76657
1318694969837,2.75188
1318695029837,2.77541
1318695089837,2.76000
1318695149837,2.77343
1318695209837,2.78028
1318695269837,2.77440
1318695329837,2.77449
1318695389837,2.77241
1318695449837,2.79360
1318695509837,2.79021
1318695569837,2.78586
1318695629837,2.81005
1318695689837,2.80731
1318695749837,2.79474
1318695809837,2.80259
1318695869837,2.81014
1318695929837,2.79586
1318695989837,2.81405
1318696049837,2.78977
1318696109837,2.77315
1318696169837,2.77195
1318696229837,2.77474
1318696289837,2.76723
1318696349837,2.76936
1318696409837,2.78212
1318696469837,2.78195
1318696529837,2.76547
1318696589837,2.77587
1318696649837,2.78675
1318696709837,2.76584
1318696769837,2.93871
1318696829837,2.76052
1318696889837,2.78127
1318696949837,2.77161
1318697009837,2.77671
1318697069837,2.77029
1318697129837,2.76191
1318697189837,2.76764
1318697249837,2.84583
1318697309837,2.75499
1318697369837,2.77908
1318697429837,2.75867
1318697489837,2.74110
1318697549837,2.73832
1318697609837,2.74499
1318697669837,2.77002
1318697729837,2.73647
1318697789837,2.73962
1318697849837,2.75442
1318697909837,2.75179
1318697969837,2.74185
1318698029849,2.74215
1318698089849,2.73896
1318698149849,2.72365
1318698209849,2.73850
1318698269849,2.74444
1318698329849,2.71443
1318698389849,2.75927
1318698449849,2.73798
1318698509849,2.73184
1318698569849,2.72299
1318698629849,2.73326
1318698689849,2.72383
1318698749849,2.71563
1318698809849,2.70607
1318698869849,2.72725
1318698929849,2.74457
1318698989849,2.73885
1318699049849,2.72141
1318699109849,2.72478
1318699169849,2.72732
1318699229849,2.71412
1318699289849,2.70974
1318699349849,2.72699
1318699409849,2.72230
1318699469849,2.74049
1318699529849,2.72332
1318699589849,2.73235
1318699649849,2.72960
1318699709849,2.72821
1318699769849,2.72350
1318699829849,2.74298
1318699889849,2.73416
1318699949849,2.75514
1318700009849,2.73493
1318700069849,2.72555
1318700129849,2.76197
1318700189849,2.73812
1318700249849,2.73338
1318700309849,2.73285
1318700369849,2.72554
1318700429849,2.74470
1318700489849,2.72618
1318700549849,2.74066
1318700609849,2.75634
1318700669849,2.75944
1318700729849,2.75825
1318700789849,2.74067
1318700849849,2.76236
1318700909849,2.75003
1318700969849,2.75322
1318701029849,2.76804
1318701089849,2.75828
1318701149849,2.76457
1318701209849,2.76872
1318701269849,2.77878
1318701329849,2.76363
1318701389849,2.72872
1318701449849,2.71715
1318701509849,2.79337
1318701569849,2.77169
1318701629861,2.77678
1318701689861,2.78369
1318701749861,2.77956
1318701809861,2.78296
1318701869861,2.77200
1318701929861,2.79186
1318701989861,2.77103
1318702049861,2.77142
1318702109861,2.78800
1318702169861,2.79669